| time (UTC) | temp C | wind direction | speed KPH | gust KPH | rain 1hr cm | rain 24hr cm | rain mn cm | humidity % | barometer mb |
| 20260508064828 | 12 | 222 | 9.7 | 14.5 | 0.00 | 0.00 | 0.00 | 72 | 1017.4 |
| 20260508063337 | 12 | 211 | 6.4 | 9.7 | 0.00 | 0.00 | 0.00 | 74 | 1017.4 |
| 20260508061826 | 12 | 222 | 8.0 | 11.3 | 0.00 | 0.00 | 0.00 | 72 | 1017.4 |
| 20260508060335 | 12 | 226 | 8.0 | 14.5 | 0.00 | 0.00 | 0.00 | 71 | 1017.4 |
| 20260508054826 | 12 | 199 | 8.0 | 14.5 | 0.00 | 0.00 | 0.00 | 71 | 1017.5 |
| 20260508053336 | 13 | 222 | 11.3 | 16.1 | 0.00 | 0.00 | 0.00 | 70 | 1017.3 |
| 20260508051826 | 13 | 231 | 11.3 | 14.5 | 0.00 | 0.00 | 0.00 | 69 | 1017.4 |
| 20260508050350 | 13 | 213 | 6.4 | 14.5 | 0.00 | 0.00 | 0.00 | 68 | 1017.4 |
| 20260508044838 | 13 | 230 | 8.0 | 17.7 | 0.00 | 0.00 | 0.00 | 67 | 1017.2 |
| 20260508043326 | 14 | 213 | 12.9 | 22.5 | 0.00 | 0.00 | 0.00 | 66 | 1017.2 |
| 20260508041852 | 14 | 229 | 12.9 | 19.3 | 0.00 | 0.00 | 0.00 | 64 | 1017.1 |
| 20260508040319 | 15 | 243 | 8.0 | 16.1 | 0.00 | 0.00 | 0.00 | 62 | 1016.9 |
| 20260508034829 | 15 | 235 | 9.7 | 16.1 | 0.00 | 0.00 | 0.00 | 62 | 1016.9 |
| 20260508033318 | 16 | 233 | 9.7 | 17.7 | 0.00 | 0.00 | 0.00 | 62 | 1016.7 |
| 20260508031827 | 16 | 231 | 8.0 | 17.7 | 0.00 | 0.00 | 0.00 | 63 | 1016.5 |
| 20260508030332 | 17 | 246 | 8.0 | 16.1 | 0.00 | 0.00 | 0.00 | 63 | 1016.5 |
| 20260508024821 | 18 | 247 | 8.0 | 14.5 | 0.00 | 0.00 | 0.00 | 61 | 1016.5 |
| 20260508023326 | 20 | 240 | 6.4 | 14.5 | 0.00 | 0.00 | 0.00 | 59 | 1016.6 |
| 20260508021833 | 21 | 260 | 3.2 | 4.8 | 0.00 | 0.00 | 0.00 | 59 | 1016.6 |
| 20260508020323 | 21 | 260 | 3.2 | 4.8 | 0.00 | 0.00 | 0.00 | 54 | 1016.5 |
| 20260508014828 | 22 | 233 | 1.6 | 6.4 | 0.00 | 0.00 | 0.00 | 52 | 1016.4 |
| 20260508013335 | 21 | 229 | 4.8 | 6.4 | 0.00 | 0.00 | 0.00 | 54 | 1016.6 |
| 20260508011823 | 21 | 339 | 1.6 | 4.8 | 0.00 | 0.00 | 0.00 | 53 | 1016.9 |
| 20260508010334 | 21 | 329 | 3.2 | 9.7 | 0.00 | 0.00 | 0.00 | 52 | 1016.9 |
| 20260508004822 | 22 | 7 | 3.2 | 11.3 | 0.00 | 0.00 | 0.00 | 50 | 1017.0 |
| 20260508003326 | 22 | 325 | 3.2 | 8.0 | 0.00 | 0.00 | 0.00 | 49 | 1017.1 |
| 20260508001859 | 22 | 331 | 1.6 | 3.2 | 0.00 | 0.00 | 0.00 | 51 | 1017.2 |
| 20260508000323 | 21 | 342 | 3.2 | 12.9 | 0.00 | 0.00 | 0.00 | 51 | 1017.3 |
| 20260507234847 | 22 | 310 | 3.2 | 8.0 | 0.00 | 0.00 | 0.00 | 49 | 1017.3 |
| 20260507233335 | 21 | 358 | 3.2 | 12.9 | 0.00 | 0.00 | 0.00 | 53 | 1017.5 |
| 20260507231842 | 22 | 3 | 1.6 | 12.9 | 0.00 | 0.00 | 0.00 | 50 | 1017.7 |
| 20260507230324 | 22 | 335 | 3.2 | 9.7 | 0.00 | 0.00 | 0.00 | 51 | 1017.9 |
| 20260507224852 | 21 | 301 | 3.2 | 6.4 | 0.00 | 0.00 | 0.00 | 53 | 1018.1 |
| 20260507223359 | 21 | 28 | 3.2 | 6.4 | 0.00 | 0.00 | 0.00 | 51 | 1018.3 |
| 20260507221822 | 22 | 122 | 3.2 | 11.3 | 0.00 | 0.00 | 0.00 | 50 | 1018.4 |
| 20260507220329 | 22 | 26 | 1.6 | 8.0 | 0.00 | 0.00 | 0.00 | 51 | 1018.6 |
| 20260507214814 | 21 | 217 | 3.2 | 6.4 | 0.00 | 0.00 | 0.00 | 53 | 1018.8 |
| 20260507213329 | 20 | 306 | 1.6 | 12.9 | 0.00 | 0.00 | 0.00 | 55 | 1018.8 |
| 20260507211838 | 21 | 326 | 3.2 | 12.9 | 0.00 | 0.00 | 0.00 | 54 | 1019.0 |
| 20260507210343 | 21 | 340 | 3.2 | 12.9 | 0.00 | 0.00 | 0.00 | 57 | 1019.1 |
| 20260507204827 | 20 | 212 | 4.8 | 11.3 | 0.00 | 0.00 | 0.00 | 59 | 1019.4 |
| 20260507203349 | 20 | 236 | 4.8 | 11.3 | 0.00 | 0.00 | 0.00 | 62 | 1019.6 |
| 20260507201817 | 19 | 10 | 6.4 | 12.9 | 0.00 | 0.00 | 0.00 | 62 | 1019.7 |
| 20260507200342 | 18 | 39 | 3.2 | 11.3 | 0.00 | 0.00 | 0.00 | 59 | 1019.8 |
| 20260507194824 | 18 | 328 | 6.4 | 16.1 | 0.00 | 0.00 | 0.00 | 66 | 1020.1 |
| 20260507193332 | 17 | 43 | 3.2 | 11.3 | 0.00 | 0.00 | 0.00 | 67 | 1020.1 |
| 20260507191834 | 17 | 317 | 1.6 | 6.4 | 0.00 | 0.00 | 0.00 | 70 | 1020.2 |
| 20260507190347 | 16 | 215 | 3.2 | 8.0 | 0.00 | 0.00 | 0.00 | 65 | 1020.4 |
| 20260507184832 | 15 | 227 | 1.6 | 6.4 | 0.00 | 0.00 | 0.00 | 72 | 1020.5 |
| 20260507183347 | 15 | 327 | 4.8 | 9.7 | 0.00 | 0.00 | 0.00 | 70 | 1020.5 |
| 20260507181853 | 15 | 310 | 1.6 | 11.3 | 0.00 | 0.00 | 0.00 | 73 | 1020.7 |
| 20260507180353 | 15 | 346 | 4.8 | 12.9 | 0.00 | 0.00 | 0.00 | 76 | 1020.8 |
| 20260507174823 | 14 | 354 | 4.8 | 11.3 | 0.00 | 0.00 | 0.00 | 75 | 1020.9 |
| 20260507173333 | 14 | 327 | 8.0 | 12.9 | 0.00 | 0.00 | 0.00 | 73 | 1020.9 |
| 20260507171842 | 14 | 337 | 4.8 | 14.5 | 0.00 | 0.00 | 0.00 | 75 | 1020.9 |
| 20260507170321 | 13 | 326 | 6.4 | 12.9 | 0.00 | 0.00 | 0.00 | 78 | 1020.9 |
| 20260507164826 | 13 | 324 | 3.2 | 8.0 | 0.00 | 0.00 | 0.00 | 79 | 1020.9 |
| 20260507163352 | 12 | 320 | 6.4 | 12.9 | 0.00 | 0.00 | 0.00 | 79 | 1020.9 |
| 20260507161840 | 12 | 353 | 6.4 | 16.1 | 0.00 | 0.00 | 0.00 | 80 | 1021.0 |
| 20260507160355 | 12 | 358 | 6.4 | 12.9 | 0.00 | 0.00 | 0.00 | 80 | 1020.9 |
| 20260507154838 | 12 | 341 | 8.0 | 12.9 | 0.00 | 0.00 | 0.00 | 81 | 1020.9 |
| 20260507153324 | 11 | 318 | 3.2 | 11.3 | 0.00 | 0.00 | 0.00 | 83 | 1021.0 |
| 20260507151814 | 11 | 328 | 8.0 | 14.5 | 0.00 | 0.00 | 0.00 | 84 | 1021.1 |
| 20260507150326 | 11 | 311 | 1.6 | 9.7 | 0.00 | 0.00 | 0.00 | 85 | 1021.1 |
| 20260507144814 | 11 | 322 | 4.8 | 9.7 | 0.00 | 0.00 | 0.00 | 87 | 1021.1 |
| 20260507143345 | 11 | 319 | 4.8 | 8.0 | 0.00 | 0.00 | 0.00 | 87 | 1021.0 |
| 20260507141830 | 11 | 319 | 4.8 | 8.0 | 0.00 | 0.00 | 0.00 | 89 | 1020.9 |
| 20260507140321 | 11 | 320 | 1.6 | 4.8 | 0.00 | 0.00 | 0.00 | 89 | 1020.7 |
| 20260507134835 | 11 | 320 | 0.0 | 4.8 | 0.00 | 0.00 | 0.00 | 89 | 1020.6 |
| 20260507133344 | 11 | 320 | 0.0 | 3.2 | 0.00 | 0.00 | 0.00 | 89 | 1020.5 |
| 20260507131830 | 11 | 320 | 3.2 | 4.8 | 0.00 | 0.00 | 0.00 | 89 | 1020.6 |
| 20260507130319 | 11 | 320 | 0.0 | 3.2 | 0.00 | 0.00 | 0.00 | 89 | 1020.8 |
| 20260507124826 | 11 | 320 | 1.6 | 4.8 | 0.00 | 0.00 | 0.00 | 89 | 1020.7 |
| 20260507123354 | 11 | 320 | 0.0 | 4.8 | 0.00 | 0.00 | 0.00 | 89 | 1020.8 |
| 20260507121821 | 11 | 320 | 3.2 | 4.8 | 0.00 | 0.00 | 0.00 | 88 | 1020.8 |
| 20260507120350 | 11 | 320 | 1.6 | 4.8 | 0.00 | 0.00 | 0.00 | 88 | 1020.9 |
| 20260507114857 | 11 | 321 | 3.2 | 6.4 | 0.00 | 0.00 | 0.00 | 88 | 1021.0 |
| 20260507113341 | 11 | 315 | 3.2 | 4.8 | 0.00 | 0.00 | 0.00 | 88 | 1021.1 |
| 20260507111835 | 11 | 311 | 1.6 | 6.4 | 0.00 | 0.00 | 0.00 | 88 | 1021.2 |
| 20260507110356 | 11 | 288 | 1.6 | 6.4 | 0.00 | 0.00 | 0.00 | 88 | 1021.1 |
| 20260507104823 | 11 | 261 | 0.0 | 4.8 | 0.00 | 0.00 | 0.00 | 88 | 1021.1 |
| 20260507103331 | 11 | 242 | 0.0 | 1.6 | 0.00 | 0.00 | 0.00 | 88 | 1021.3 |
| 20260507101839 | 11 | 242 | 1.6 | 8.0 | 0.00 | 0.00 | 0.00 | 87 | 1021.3 |
| 20260507100330 | 11 | 250 | 3.2 | 11.3 | 0.00 | 0.00 | 0.00 | 87 | 1021.4 |
| 20260507094820 | 11 | 231 | 6.4 | 11.3 | 0.00 | 0.00 | 0.00 | 87 | 1021.4 |
| 20260507093329 | 11 | 244 | 3.2 | 11.3 | 0.00 | 0.00 | 0.00 | 86 | 1021.6 |
| 20260507091837 | 11 | 238 | 1.6 | 8.0 | 0.00 | 0.00 | 0.00 | 86 | 1021.6 |
| 20260507090348 | 11 | 249 | 3.2 | 6.4 | 0.00 | 0.00 | 0.00 | 86 | 1021.9 |
| 20260507084858 | 11 | 262 | 3.2 | 8.0 | 0.00 | 0.00 | 0.00 | 87 | 1021.9 |
| 20260507083324 | 11 | 238 | 0.0 | 4.8 | 0.00 | 0.00 | 0.00 | 87 | 1021.8 |
| 20260507081833 | 11 | 230 | 4.8 | 8.0 | 0.00 | 0.00 | 0.00 | 87 | 1021.7 |
| 20260507080322 | 11 | 238 | 3.2 | 12.9 | 0.00 | 0.00 | 0.00 | 87 | 1021.7 |
| 20260507074829 | 11 | 239 | 8.0 | 14.5 | 0.00 | 0.00 | 0.00 | 87 | 1021.7 |
| 20260507073335 | 11 | 249 | 11.3 | 16.1 | 0.00 | 0.00 | 0.00 | 87 | 1021.7 |
| 20260507071825 | 11 | 239 | 9.7 | 16.1 | 0.00 | 0.00 | 0.00 | 86 | 1021.7 |
| 20260507070317 | 11 | 235 | 8.0 | 14.5 | 0.00 | 0.00 | 0.00 | 86 | 1021.6 |